This is the latest recevied weather packets stored in our database for station/object IU7LMH-13. If no packets are shown the sender has not sent any weather packets the latest 10 day(s).
| Time | Temp. | Humidity | Pressure | Rain* | Wind** | Luminosity | Snow |
|---|---|---|---|---|---|---|---|
| 1777572044 | 14.44° C | 77% | 1018.8 hPa | 0 mm | - | - | - |
| 1777570716 | 15° C | 75% | 1018.6 hPa | 0 mm | - | - | - |
| 1777568796 | 15° C | 74% | 1018.4 hPa | 0 mm | - | - | - |
| 1777568317 | 15.56° C | 74% | 1018.2 hPa | 0 mm | - | - | - |
| 1777568076 | 15.56° C | 75% | 1018.1 hPa | 0 mm | - | - | - |
| 1777567597 | 15.56° C | 75% | 1018.2 hPa | 0 mm | - | - | - |
| 1777566278 | 15.56° C | 74% | 1018.1 hPa | 0 mm | - | - | - |
| 1777565917 | 15.56° C | 75% | 1018.2 hPa | 0 mm | - | - | - |
| 1777565798 | 15.56° C | 74% | 1018.3 hPa | 0 mm | - | - | - |
| 1777565317 | 15.56° C | 75% | 1018.1 hPa | 0 mm | - | - | - |
| 1777563517 | 16.11° C | 75% | 1018.2 hPa | 0 mm | - | - | - |
| 1777562197 | 15.56° C | 74% | 1018.1 hPa | 0 mm | - | - | - |
| 1777561244 | 15.56° C | 74% | 1017.9 hPa | 0 mm | - | - | - |
| 1777561118 | 15.56° C | 75% | 1018 hPa | 0 mm | - | - | - |
| 1777560757 | 15.56° C | 78% | 1018 hPa | 0 mm | - | - | - |
| 1777560398 | 15.56° C | 78% | 1017.8 hPa | 0 mm | - | - | - |
| 1777560277 | 15.56° C | 78% | 1017.8 hPa | 0 mm | - | - | - |
| 1777560157 | 15.56° C | 79% | 1017.9 hPa | 0 mm | - | - | - |
| 1777559918 | 15.56° C | 80% | 1017.8 hPa | 0 mm | - | - | - |
| 1777559443 | 15.56° C | 81% | 1017.8 hPa | 0 mm | - | - | - |
| 1777558475 | 15.56° C | 84% | 1017.8 hPa | 0 mm | - | - | - |
| 1777557999 | 16.11° C | 83% | 1017.6 hPa | 0 mm | - | - | - |
| 1777556917 | 16.67° C | 80% | 1017.4 hPa | 0 mm | - | - | - |
| 1777556443 | 16.67° C | 80% | 1017.5 hPa | 0 mm | - | - | - |
| 1777556317 | 17.22° C | 80% | 1017.5 hPa | 0 mm | - | - | - |
* Rain latest hour (hover to see other rain measurements)
** Current wind speed in m/s (hover to see current wind gust speed)